Location: Zagreb
(45.8000°N, 16.0000°E)
Time: 23:57:16
(UTC+02:00)

Envisat - Pass Details

Date: 29 April 2024
Orbit: 762 x 764 km, 98.3° (Epoch: 27 May)

Event Time Altitude Azimuth Distance (km) Brightness Sun altitude
Rises 03:37:43 0° 21° (NNE) 3,238 7.5 -19.2°
Reaches altitude 10° 03:40:14 10° 31° (NNE) 2,307 6.7 -18.9°
Maximum altitude 03:44:52 35° 96° (E) 1,226 4.4 -18.3°
Drops below altitude 10° 03:49:27 10° 162° (SSE) 2,290 5.2 -17.7°
Enters shadow 03:50:02 - 165° (SSE) 2,502 5.4 -17.7°
